Regional Weather Roundup
Issued by NWS

Home | Current Version | Previous Version | Text Only | Print | Product List | Glossary On
Versions: 1 2 3 4 5 6 7 8 9 10 11 12 13 14 15 16 17 18 19 20 21 22 23 24 25 26 27 28 29 30 31 32 33 34 35 36 37 38 39 40 41 42 43 44 45 46 47 48 49 50
000
ASUS43 KLSX 201859
RWRMO

WEATHER SUMMARY FOR MISSOURI
NATIONAL WEATHER SERVICE SPRINGFIELD MO
200 PM CDT SAT SEP 20 2014

NOTE: "FAIR" INDICATES FEW OR NO CLOUDS BELOW 12,000 FEET WITH NO
       SIGNIFICANT WEATHER AND/OR OBSTRUCTIONS TO VISIBILITY.
       CURRENT SKY AND/OR WEATHER CONDITIONS ARE NOT AVAILABLE FOR
       CHILLICOTHE AND FARMINGTON.

MOZ001>031-035>038-043-044-053-054-202000-
...NORTHERN AND WESTERN MISSOURI...

CITY           SKY/WX    TMP DP  RH WIND       PRES   REMARKS
KANSAS CTY INT CLOUDY    79  70  74 SW12      29.94F
KANSAS C DTWN  LGT RAIN  83  69  62 SW13G24   29.92F
LEE`S SUMMIT   MOSUNNY   83  69  62 SW21      29.94F
ST JOSEPH      CLOUDY    77  70  79 SW9       29.91F
KIRKSVILLE     CLOUDY    77  69  76 W13       29.95F

$$
MOZ066>068-077>081-088>096-101>105-202000-
...SOUTHWEST MISSOURI...

CITY           SKY/WX    TMP DP  RH WIND       PRES   REMARKS
SPRINGFIELD    MOSUNNY   84  68  58 SW12      30.03F
JOPLIN         PTSUNNY   81  71  71 SW10      30.03F

$$
MOZ032>034-039>042-045>050-055>058-069>072-202000-
...CENTRAL MISSOURI...

CITY           SKY/WX    TMP DP  RH WIND       PRES   REMARKS
COLUMBIA       PTSUNNY   84  68  58 SW21      29.95F
JEFFERSON CITY MOSUNNY   86  67  52 SW12G21   29.94F
ROLLA          MOSUNNY   83  67  58 SW12      30.00F
SEDALIA        MOSUNNY   84  69  60 SW17G24   29.95F
OSAGE BEACH    PTSUNNY   82  68  61 SW9       30.01F

$$
MOZ051-052-059>065-202000-
...EAST CENTRAL MISSOURI...

CITY           SKY/WX    TMP DP  RH WIND       PRES   REMARKS
ST LOUIS INTL  CLOUDY    85  69  58 SW13      29.97F
SPIRIT OF STL  PTSUNNY   84  70  62 SW10G16   29.95F
ST CHARLES     CLOUDY    84  68  58 SW12      29.94F

$$
MOZ072>076-082>087-097>100-106>115-202000-
...SOUTH CENTRAL AND SOUTHEAST MISSOURI...

CITY           SKY/WX    TMP DP  RH WIND       PRES   REMARKS
CAPE GIRARDEAU MOSUNNY   83  68  60 SW9       30.00F
FARMINGTON     MOSUNNY   84  68  58 SW12      30.02F
POPLAR BLUFF   MOSUNNY   86  67  52 W8        30.00F
WEST PLAINS    MOSUNNY   83  67  58 W9        30.05F

$$


USA.gov is the U.S. government's official web portal to all federal, state and local government web resources and services.